Showing default

PERUSAT 1, 41770

Orbit data source: Space-Track

PERUSAT 1, 41770 is a payload satellite owned by MOD Peru (PE) in SSO that was launched on Fri, 16 Sep 2016 UTC via a VEGA launch vehicle from the French Guiana (FRGUI). Payload-class satellites include a variety of spacecraft equipped with specific instruments for various scientific and technological missions. These include communications satellites like Starlink; space stations such as the ISS; scientific satellites like the Hubble; Earth observation satellites from companies like Planet Labs, Umbra, and HawkEye 360; GPS; miniature CubeSats for education and research; and military/defense satellites.

Loading next visibility...
Identifier
41770, 2016-058A
Orbit
SSO
Country
Flag of PEPE / PER
Related business
Manufacturer
Airbus/Toulouse
Mission
Operational Defense Imaging
Bus & Motor
ASTROBUS-S, Unknown motor
Mass
430 kg wet, ~400 kg dry
Launch date (UTC)
2016-09-16 (9 years ago)
Launch vehicle
VEGA
Launch site
French Guiana (FRGUI)
Object type
Payload
Rocket body
Debris
Shape & HBR
Hex Cyl + 3 Pan, 2.6 m
Radar Cross Section
3.025 m², Large (>1 m²)

Expand to show TLE details & history
Last TLE update: 5 hours ago

TLE from 5 hours ago
0 PERUSAT 1
1 41770U 16058A   25307.81151781  .00000479  00000-0  11286-3 0  9999
2 41770  98.1752  19.5810 0001231  89.2555 270.8786 14.58553298486240
Epoch: 2025-11-03T19:28Z
TLE epoch observation values (Epoch: 2025-11-03T19:28:35.138Z)
Latitude
0.00002°
Longitude
44.12705°
Altitude
700.82 km
Speed
7.506 km/s
True Right ascension
01h 18m 19s
True Declination
0° 00' 00"
Sunlit
Object was in full shadow at epoch
Visualization orbit readout
Latitude
Unknown
Longitude
Unknown
Altitude
Unknown
Speed
Unknown
Apparent Right ascension
Unknown
Apparent Declination
Unknown
Sunlit
N/A
Visualization observer readout
Local Sidereal Time
20:25:56
Azimuth
Unknown
Elevation
Unknown
Doppler factor
Unknown
Orbital elements
Apogee altitude
695.802 km
Perigee altitude
694.06 km
Semi-major axis
7,073.068 km
Eccentricity
0.00012
Inclination
98.1752°
RAAN
19.581°
Arg. of periapsis
89.2555°
True anomaly
270.8645°
Mean anomaly
270.8786°
Eccentric anomaly
270.87155°
Mean motion
3.64864 °/min
Orbital period
98.67 mins
BSTAR
0.00011286
Loading maneuver chart data...
Computing Atmospheric mass density...
Loading historical data...
Loading historical data...
Loading historical data...
Loading historical data...
Loading historical data...
Loading historical data...
Loading historical data...

Documentation

Showing up to 5 results
|